Location: Namasale
(1.5000°N, 32.6167°E)
Time: 12:03:42
(UTC+00:00)

Tiros 1 - All Passes

Search period start: 18 April 2021 00:00
Search period end: 28 April 2021 00:00
Orbit: 630 x 663 km, 48.4° (Epoch: 17 April)

Date Brightness Start Highest point End Pass type
(mag) Time Alt. Az. Time Alt. Az. Time Alt. Az.
18 Apr - 03:46:40 10° S 03:50:11 20° SE 03:53:40 10° E daylight
18 Apr - 05:28:02 10° WSW 05:32:12 31° NW 05:36:19 10° NNE daylight
18 Apr - 15:57:51 10° NNW 16:02:18 45° NE 16:06:49 10° SE daylight
18 Apr - 17:41:57 10° W 17:44:21 14° SW 17:46:47 10° SSW visible
19 Apr - 04:11:23 10° SSW 04:16:06 67° SE 04:20:45 10° NE daylight
19 Apr - 14:44:10 10° NNE 14:46:08 12° NE 14:48:07 10° ENE daylight
19 Apr - 16:23:41 10° NW 16:28:11 50° SW 16:32:46 10° SSE visible
20 Apr - 02:56:43 10° S 02:59:57 18° SE 03:03:11 10° E visible
20 Apr - 04:37:40 10° WSW 04:42:00 35° NW 04:46:17 10° NNE daylight
20 Apr - 15:07:45 10° NNW 15:12:06 40° NE 15:16:29 10° ESE daylight
20 Apr - 16:51:20 10° W 16:54:08 16° SW 16:56:58 10° SSW visible
21 Apr - 03:21:13 10° SSW 03:25:54 59° SE 03:30:31 10° NE visible
21 Apr - 05:06:39 10° WNW 05:07:59 11° NW 05:09:18 10° NNW daylight
21 Apr - 13:54:45 10° NE 13:55:54 11° NE 13:57:04 10° ENE daylight
21 Apr - 15:33:25 10° NW 15:37:59 58° SW 15:42:36 10° SSE daylight
22 Apr - 02:06:48 10° SSE 02:09:44 16° SE 02:12:38 10° E visible
22 Apr - 03:47:19 10° WSW 03:51:47 40° NW 03:56:11 10° NNE daylight
22 Apr - 14:17:40 10° NNW 14:21:53 35° NE 14:26:09 10° ESE daylight
22 Apr - 16:00:47 10° W 16:03:54 18° SW 16:07:04 10° S daylight
23 Apr - 02:31:02 10° SSW 02:35:41 51° SE 02:40:16 10° NE visible
23 Apr - 04:15:39 10° WNW 04:17:45 13° NW 04:19:50 10° NNW daylight
23 Apr - 14:43:11 10° NW 14:47:46 67° SW 14:52:26 10° SSE daylight
24 Apr - 01:16:58 10° SSE 01:19:31 14° SE 01:22:01 10° E visible
24 Apr - 02:57:00 10° SW 03:01:34 46° NW 03:06:05 10° NNE visible
24 Apr - 13:27:37 10° N 13:31:41 30° NE 13:35:46 10° ESE daylight
24 Apr - 15:10:18 10° W 15:13:42 20° SW 15:17:07 10° S daylight
25 Apr - 01:40:53 10° SSW 01:45:27 45° SE 01:49:59 10° ENE visible
25 Apr - 03:24:54 10° W 03:27:31 15° NW 03:30:07 10° NNW daylight
25 Apr - 13:52:57 10° NW 13:57:34 77° SW 14:02:14 10° SE daylight
26 Apr - 00:27:15 10° SSE 00:29:16 12° SE 00:31:17 10° ESE visible
26 Apr - 02:06:41 10° SW 02:11:20 53° NW 02:15:57 10° NNE visible
26 Apr - 12:37:35 10° N 12:41:28 27° NE 12:45:23 10° ESE daylight
26 Apr - 14:19:51 10° WNW 14:23:28 22° SW 14:27:08 10° S daylight
27 Apr - 00:50:45 10° SSW 00:55:14 39° SE 00:59:40 10° ENE visible
27 Apr - 02:34:16 10° W 02:37:17 17° NW 02:40:17 10° N visible
27 Apr - 13:02:45 10° NW 13:07:22 88° SW 13:12:02 10° SE daylight
27 Apr - 23:37:46 10° SE 23:39:02 11° SE 23:40:17 10° ESE night (unlit)
